Temp
65 65 65 66 57 52 47 52 58 60 63 68 67 66 66 68 65 62 68 72 71 73 75 76 74 75 75 75 75 75 75 76 76 76 76 76 76 76 76 76 76 76 76 75 75 75 75 73 72
64 68 66 59 50 45 47 53 56 62 66 66 66 67 67 67 67 65 66 71 72 74 75 75 73 75 75 75 74 74 75 76 76 76 75 76 76 76 76 76 75 75 75 75 74 74 74 72 72
65 67 62 54 46 46 48 54 57 62 64 64 66 67 67 68 68 67 70 71 72 73 74 74 72 74 74 74 74 74 75 75 76 76 76 76 76 75 75 75 75 75 75 74 74 73 72 72 72
63 64 58 51 47 51 53 56 60 60 66 67 66 66 69 71 70 70 70 71 72 72 73 71 72 74 74 74 74 74 74 75 75 76 75 75 75 75 75 75 75 75 74 74 73 72 72 71 71
61 58 50 46 48 53 55 58 60 61 62 64 66 65 66 70 69 69 69 71 70 71 72 73 72 73 73 74 74 74 74 75 75 75 75 75 75 74 74 75 75 75 74 73 72 72 71 70 70
57 55 47 44 47 54 56 60 61 61 63 64 64 63 67 67 67 66 69 70 72 70 71 72 68 70 72 73 73 73 73 74 74 74 75 74 74 74 74 74 74 74 74 72 71 71 70 69 69
53 50 46 46 47 52 55 56 60 60 61 64 66 62 67 67 67 67 67 69 70 71 71 72 72 71 67 69 70 71 72 72 73 73 74 73 72 72 72 72 73 73 72 71 71 70 69 69 69
52 51 45 46 46 49 50 53 59 58 61 67 67 61 64 67 66 66 66 67 68 69 71 70 70 71 72 72 66 67 69 70 70 71 69 68 68 69 69 68 70 72 71 71 70 69 69 69 68
56 46 42 45 44 47 51 50 57 61 60 61 67 66 68 65 64 64 64 64 66 68 69 70 70 70 71 71 68 65 66 67 67 67 65 65 72 72 70 66 68 70 70 70 69 69 68 67 65
48 43 42 47 47 46 50 50 53 54 54 58 62 66 66 63 63 63 62 62 63 66 67 69 70 70 69 71 70 70 70 70 70 70 70 71 70 70 69 65 64 67 66 68 69 68 66 64 67
45 39 44 47 49 49 48 50 54 52 51 57 54 58 64 63 63 63 63 65 65 67 69 68 69 70 70 70 68 69 70 70 69 70 69 68 68 67 68 67 67 68 63 68 68 67 67 66 66
39 44 44 46 47 47 46 49 48 51 51 54 57 59 61 62 63 63 64 65 66 67 68 71 69 69 70 70 68 69 68 68 68 68 68 67 66 65 65 65 65 65 66 65 65 65 64 64 64
39 40 43 45 45 46 48 45 47 48 51 55 57 58 58 60 62 66 65 66 66 66 67 69 70 70 70 69 69 69 68 67 69 67 66 67 66 65 65 65 64 64 65 64 64 63 63 63 64
40 40 40 44 43 44 41 43 44 48 51 51 53 54 57 58 60 62 64 64 65 67 67 68 69 69 70 69 70 69 68 67 67 66 67 66 66 65 64 63 63 63 64 65 64 63 63 63 63
39 36 37 39 40 39 43 40 42 46 48 47 48 51 54 57 59 60 64 65 67 67 68 68 68 69 68 68 67 67 67 67 66 66 66 65 65 64 64 63 63 64 64 63 63 62 62 62 63
32 31 29 36 38 39 39 32 42 45 44 43 45 47 50 54 58 60 62 65 67 67 67 68 68 68 68 68 68 66 66 66 66 66 65 65 64 64 63 63 63 64 63 63 62 63 62 62 63
26 24 24 28 37 36 35 30 40 46 43 41 43 45 47 50 55 59 61 64 66 67 67 67 67 66 66 68 68 67 66 65 66 66 66 64 64 64 64 63 63 63 63 62 62 62 62 62 62
24 23 25 24 32 34 31 31 38 42 41 40 40 43 46 48 52 57 63 64 66 66 66 67 66 66 66 66 65 66 64 64 66 65 65 64 65 64 63 63 63 63 62 62 61 61 61 61 63
26 23 22 25 33 31 29 30 35 39 39 38 41 43 46 47 52 55 58 59 59 64 63 65 64 64 64 62 61 61 61 63 64 65 65 64 65 64 63 63 62 62 61 62 61 61 60 60 61
27 24 22 28 32 31 27 29 34 36 38 39 41 42 45 47 49 52 55 55 53 54 54 63 63 63 63 63 63 63 63 65 66 65 65 65 65 65 64 63 62 62 61 61 61 61 60 61 61
26 25 23 23 29 29 26 24 29 36 38 40 43 43 46 45 46 49 51 52 49 47 51 55 60 63 63 63 64 63 63 63 63 63 64 64 65 64 64 63 64 62 62 61 61 61 61 60 61
26 30 28 26 23 18 26 18 23 31 33 37 40 40 43 43 46 47 49 51 51 50 50 52 54 58 61 60 62 61 61 60 63 64 65 65 65 64 64 64 64 63 62 62 61 62 62 62 60
28 31 27 27 22 20 21 15 22 29 31 34 39 41 42 43 44 45 47 50 53 52 51 52 52 54 56 57 58 59 61 63 65 64 63 64 64 65 65 65 64 63 63 63 62 62 61 61 62
33 27 27 24 21 9 19 19 21 26 32 33 37 41 41 41 43 46 49 50 50 50 51 50 52 52 54 54 54 56 57 62 61 61 61 62 63 63 64 64 64 64 63 62 62 62 62 62 62
28 19 12 13 9 12 20 20 24 32 34 34 35 37 39 39 41 42 45 46 47 47 49 50 50 50 52 52 53 54 55 58 62 61 61 61 61 61 62 63 62 63 63 63 63 61 61 61 61
25 20 13 6 9 13 23 14 26 33 36 37 36 37 38 40 39 40 43 44 45 46 46 47 48 48 50 50 51 52 53 54 59 62 62 62 62 62 64 62 63 62 63 63 63 63 61 61 60
23 14 23 12 12 9 16 21 30 35 34 35 35 35 36 39 40 41 43 43 44 44 45 46 46 47 48 49 49 50 51 53 56 61 62 61 62 62 62 61 61 61 61 61 62 62 61 59 58
26 28 14 11 1 1 14 16 20 29 32 34 33 34 36 39 41 42 42 43 43 44 44 44 46 45 47 47 48 49 49 50 52 57 58 61 61 59 60 60 60 60 60 60 60 57 53 51 47
22 18 14 13 14 8 7 14 27 30 32 31 32 34 37 39 40 41 42 43 43 42 42 42 42 44 45 46 46 45 47 49 51 53 57 58 59 59 58 59 59 59 57 56 54 50 48 45 44
25 23 20 10 9 13 15 15 32 32 32 31 32 39 39 40 41 41 41 41 40 40 40 40 40 42 43 44 43 44 46 48 49 52 56 57 56 55 54 53 51 51 51 49 48 45 44 42 41
MSLP
1016.70 1016.21 1016.17 1016.10 1017.58 1018.36 1018.25 1017.65 1016.88 1016.20 1015.47 1014.82 1014.63 1014.48 1014.31 1014.15 1014.60 1014.89 1014.31 1014.25 1014.31 1014.49 1014.81 1015.37 1015.88 1016.22 1016.62 1016.98 1017.25 1017.63 1017.92 1018.07 1018.35 1018.70 1019.14 1019.40 1019.64 1019.79 1019.96 1020.08 1020.24 1020.30 1020.45 1020.66 1020.80 1020.84 1020.98 1021.29 1021.38
1016.78 1016.18 1016.26 1017.30 1018.34 1019.01 1018.67 1017.81 1017.00 1016.16 1015.54 1014.94 1014.64 1014.39 1014.33 1013.98 1013.99 1014.23 1014.40 1014.34 1014.36 1014.56 1014.90 1015.19 1015.71 1016.21 1016.55 1016.82 1017.14 1017.48 1017.80 1017.98 1018.33 1018.66 1019.11 1019.35 1019.64 1019.82 1019.97 1020.15 1020.29 1020.41 1020.59 1020.77 1020.94 1021.03 1021.21 1021.44 1021.47
1016.82 1016.81 1017.22 1018.22 1019.26 1019.34 1018.74 1017.73 1017.15 1016.41 1015.53 1015.16 1014.77 1014.51 1014.29 1013.88 1014.00 1013.96 1013.76 1014.05 1014.36 1014.66 1015.00 1015.31 1015.66 1016.06 1016.52 1016.78 1017.05 1017.35 1017.73 1018.01 1018.17 1018.59 1019.00 1019.31 1019.64 1019.84 1020.06 1020.24 1020.34 1020.48 1020.70 1020.88 1021.03 1021.23 1021.42 1021.53 1021.60
1017.09 1017.34 1018.57 1018.71 1019.35 1019.19 1018.67 1017.76 1017.41 1016.63 1015.62 1015.35 1015.24 1014.72 1014.38 1013.64 1013.70 1013.80 1013.92 1014.05 1014.28 1014.63 1015.00 1015.33 1015.55 1015.92 1016.41 1016.80 1016.98 1017.26 1017.57 1017.90 1018.13 1018.48 1018.99 1019.29 1019.57 1019.78 1019.98 1020.18 1020.32 1020.43 1020.75 1020.95 1021.17 1021.37 1021.51 1021.64 1021.78
1017.69 1018.32 1019.02 1019.35 1019.16 1018.68 1018.09 1017.52 1017.25 1016.74 1016.18 1015.54 1015.26 1014.68 1014.18 1013.61 1013.81 1013.92 1014.14 1014.15 1014.37 1014.56 1015.00 1015.34 1015.61 1015.74 1016.17 1016.70 1017.02 1017.21 1017.46 1017.75 1018.00 1018.48 1018.90 1019.24 1019.52 1019.82 1020.01 1020.15 1020.31 1020.50 1020.75 1020.94 1021.22 1021.43 1021.62 1021.84 1022.01
1018.56 1019.14 1019.74 1019.78 1019.44 1018.70 1018.22 1017.58 1017.11 1016.55 1016.13 1015.70 1015.52 1015.20 1014.43 1014.45 1014.47 1014.65 1014.72 1014.69 1014.34 1014.79 1015.00 1015.25 1015.64 1015.86 1015.99 1016.38 1016.91 1017.26 1017.48 1017.66 1017.86 1018.46 1018.75 1019.13 1019.51 1019.81 1020.05 1020.18 1020.40 1020.55 1020.70 1021.09 1021.29 1021.47 1021.70 1021.91 1022.04
1018.89 1019.72 1020.13 1020.04 1019.82 1019.46 1019.20 1018.52 1017.71 1017.22 1016.56 1015.92 1015.74 1015.30 1014.77 1014.74 1014.96 1015.17 1015.26 1015.17 1014.95 1014.73 1015.06 1015.30 1015.43 1015.82 1016.10 1016.32 1016.63 1017.07 1017.50 1017.75 1017.86 1018.23 1018.67 1019.05 1019.43 1019.75 1020.05 1020.28 1020.48 1020.65 1020.92 1021.18 1021.38 1021.57 1021.74 1021.88 1021.98
1019.47 1020.09 1020.68 1020.61 1020.55 1020.42 1020.37 1019.48 1018.81 1018.24 1016.87 1016.12 1015.88 1015.83 1015.35 1015.26 1015.26 1015.40 1015.18 1015.62 1015.48 1015.21 1014.96 1015.22 1015.46 1015.53 1015.93 1016.25 1016.66 1016.93 1017.28 1017.70 1017.94 1018.21 1018.61 1018.99 1019.40 1019.72 1020.00 1020.31 1020.53 1020.72 1020.97 1021.20 1021.36 1021.55 1021.69 1021.75 1021.90
1019.75 1020.77 1021.53 1021.62 1021.70 1021.42 1021.04 1020.84 1019.57 1018.81 1018.01 1017.24 1016.01 1015.82 1015.55 1015.56 1015.70 1015.51 1015.66 1015.72 1015.68 1015.26 1015.01 1015.08 1015.40 1015.67 1015.63 1016.09 1016.39 1016.83 1017.07 1017.47 1017.82 1018.13 1018.63 1019.03 1019.33 1019.68 1019.98 1020.24 1020.50 1020.72 1020.94 1021.17 1021.35 1021.46 1021.54 1021.62 1021.78
1021.41 1022.07 1023.02 1023.10 1023.02 1022.60 1022.19 1021.62 1020.81 1019.88 1018.98 1017.50 1016.70 1016.27 1016.08 1015.96 1015.90 1015.68 1015.55 1015.24 1015.39 1015.39 1015.10 1014.91 1015.09 1015.43 1015.84 1015.78 1016.16 1016.44 1016.76 1017.06 1017.46 1017.98 1018.44 1018.86 1019.17 1019.51 1019.86 1020.18 1020.44 1020.64 1020.84 1021.02 1021.19 1021.35 1021.44 1021.56 1021.67
1023.23 1023.99 1024.23 1023.94 1023.75 1023.35 1022.71 1021.99 1021.50 1020.72 1019.75 1019.48 1018.91 1017.39 1016.66 1016.09 1015.85 1015.54 1015.07 1014.94 1014.88 1015.26 1015.18 1015.29 1014.74 1015.04 1015.62 1015.86 1015.93 1016.18 1016.38 1016.73 1017.07 1017.49 1017.97 1018.49 1018.86 1019.45 1019.77 1020.09 1020.34 1020.50 1020.74 1020.91 1021.03 1021.21 1021.32 1021.40 1021.49
1024.87 1024.87 1024.86 1024.67 1024.31 1023.82 1023.47 1023.14 1022.47 1021.42 1021.02 1020.45 1019.77 1018.75 1017.36 1016.48 1015.76 1015.25 1014.76 1014.30 1014.50 1014.44 1014.64 1014.98 1015.17 1014.81 1014.90 1015.38 1015.73 1015.75 1015.83 1016.32 1016.51 1016.94 1017.54 1018.18 1018.51 1018.98 1019.41 1019.71 1020.00 1020.31 1020.49 1020.74 1020.93 1021.07 1021.17 1021.26 1021.27
1025.36 1025.50 1025.31 1025.14 1024.70 1024.36 1024.04 1023.53 1022.30 1021.61 1021.02 1020.30 1019.54 1018.62 1017.59 1016.70 1016.11 1015.24 1014.60 1014.17 1014.00 1014.02 1014.00 1013.93 1014.65 1014.83 1014.66 1014.79 1014.99 1015.37 1015.53 1015.67 1016.08 1016.53 1016.84 1017.50 1017.98 1018.51 1018.99 1019.35 1019.68 1019.97 1020.22 1020.46 1020.67 1020.85 1020.98 1021.08 1021.09
1025.84 1025.67 1025.65 1025.26 1025.27 1025.17 1024.38 1022.88 1022.08 1021.32 1020.86 1020.17 1019.46 1018.83 1017.94 1016.97 1015.96 1015.19 1014.54 1013.99 1013.57 1013.22 1013.38 1013.59 1013.61 1014.11 1014.27 1014.39 1014.43 1014.70 1015.10 1015.44 1015.74 1016.12 1016.42 1016.87 1017.33 1017.91 1018.50 1018.96 1019.31 1019.57 1019.83 1020.08 1020.35 1020.51 1020.69 1020.75 1020.86
1026.33 1026.26 1026.19 1026.01 1026.08 1026.08 1024.90 1023.27 1022.52 1021.99 1021.78 1021.10 1019.98 1018.99 1018.07 1016.87 1015.73 1015.06 1014.29 1013.72 1013.30 1012.61 1012.40 1013.14 1013.35 1013.17 1013.49 1013.87 1014.06 1014.27 1014.48 1014.90 1015.22 1015.35 1015.99 1016.42 1016.84 1017.31 1017.89 1018.37 1018.83 1019.05 1019.40 1019.73 1020.08 1020.32 1020.53 1020.57 1020.57
1027.83 1027.60 1027.64 1026.88 1026.58 1026.60 1026.04 1024.35 1022.92 1022.51 1022.05 1021.05 1020.48 1019.18 1018.11 1017.22 1016.11 1014.82 1013.86 1013.35 1012.47 1012.30 1011.98 1011.41 1012.39 1012.86 1013.00 1012.96 1013.33 1013.62 1014.00 1014.18 1014.43 1014.83 1015.22 1015.67 1016.25 1016.76 1017.26 1017.74 1018.13 1018.59 1019.07 1019.38 1019.62 1019.76 1019.94 1020.06 1020.10
1029.70 1029.46 1029.42 1028.26 1027.39 1027.36 1027.09 1025.04 1023.52 1022.72 1022.24 1021.46 1020.80 1019.78 1018.48 1017.24 1016.02 1014.78 1013.81 1013.04 1012.11 1011.55 1011.63 1011.42 1011.26 1011.74 1012.29 1012.52 1012.68 1013.08 1013.49 1013.99 1013.94 1014.25 1014.67 1014.92 1015.39 1016.01 1016.50 1016.85 1017.25 1017.92 1018.46 1018.91 1019.17 1019.42 1019.56 1019.56 1019.65
1031.09 1030.72 1030.03 1029.19 1028.19 1027.59 1026.74 1025.39 1023.49 1022.68 1022.43 1021.78 1021.12 1019.99 1018.87 1017.76 1016.48 1015.12 1013.78 1012.97 1012.08 1011.14 1011.09 1011.11 1011.11 1010.85 1011.88 1012.27 1012.58 1012.76 1013.18 1013.18 1013.35 1013.53 1013.85 1014.57 1014.67 1015.10 1015.78 1016.25 1016.59 1017.15 1017.70 1018.16 1018.63 1018.89 1019.20 1019.31 1019.30
1030.74 1030.63 1030.73 1029.50 1028.95 1028.24 1027.10 1025.54 1024.27 1023.02 1022.14 1021.65 1021.04 1020.24 1019.15 1018.20 1017.21 1016.14 1014.91 1013.62 1013.04 1012.47 1011.52 1011.15 1010.90 1010.73 1010.80 1011.55 1011.75 1012.13 1011.99 1012.26 1012.45 1012.63 1013.08 1013.64 1014.15 1014.36 1014.72 1015.26 1015.99 1016.44 1016.91 1017.32 1017.75 1018.28 1018.55 1018.83 1019.10
1030.60 1030.61 1030.67 1029.30 1028.89 1028.25 1027.93 1025.80 1024.49 1023.32 1022.65 1022.09 1021.37 1020.59 1019.86 1018.65 1017.52 1016.79 1015.85 1014.94 1014.23 1014.24 1013.78 1011.84 1010.74 1010.67 1009.91 1010.77 1010.87 1010.97 1011.34 1011.53 1011.73 1012.14 1012.21 1012.59 1013.11 1013.64 1013.91 1014.19 1014.86 1015.72 1016.41 1016.85 1017.25 1017.63 1018.00 1018.16 1018.45
1030.25 1030.51 1030.63 1030.96 1029.81 1029.18 1028.66 1026.67 1025.18 1023.25 1022.71 1021.67 1020.86 1020.48 1019.70 1018.97 1018.32 1017.47 1016.57 1015.98 1015.78 1015.36 1015.05 1013.65 1011.94 1010.84 1010.42 1009.87 1010.25 1010.24 1010.32 1010.71 1011.19 1011.45 1011.45 1011.39 1012.05 1012.70 1013.27 1013.60 1013.84 1014.45 1015.27 1015.80 1016.36 1016.82 1017.11 1017.29 1017.61
1029.85 1030.04 1030.51 1030.69 1030.51 1031.02 1030.14 1028.89 1025.84 1023.99 1022.94 1021.98 1021.16 1020.42 1019.62 1019.19 1018.36 1017.76 1017.01 1016.44 1015.78 1015.50 1015.73 1014.43 1013.52 1012.33 1010.96 1010.19 1009.35 1009.32 1009.31 1009.18 1009.51 1010.35 1011.02 1011.33 1011.27 1011.65 1012.06 1012.59 1012.98 1013.46 1013.93 1014.61 1015.23 1015.82 1016.16 1016.60 1016.74
1030.38 1029.92 1030.57 1030.79 1030.98 1031.56 1031.08 1031.10 1025.33 1024.30 1023.07 1022.18 1021.33 1020.69 1020.00 1019.43 1018.88 1018.03 1017.33 1016.81 1016.20 1015.42 1014.78 1014.62 1014.05 1012.85 1011.79 1010.58 1010.17 1009.74 1008.48 1008.38 1008.39 1008.92 1009.49 1010.25 1010.67 1010.82 1011.04 1011.48 1012.23 1012.48 1013.01 1013.55 1014.29 1014.76 1015.35 1015.67 1015.92
1030.50 1030.32 1030.85 1031.11 1031.42 1031.86 1031.45 1030.92 1026.30 1024.10 1022.97 1022.40 1021.30 1020.73 1020.22 1019.52 1018.75 1017.85 1017.03 1016.29 1016.08 1015.52 1014.70 1013.91 1013.62 1012.85 1012.33 1011.72 1010.52 1009.78 1009.19 1007.75 1007.61 1007.85 1008.30 1008.82 1009.43 1010.16 1010.51 1010.85 1011.14 1011.56 1011.86 1012.42 1013.19 1013.79 1014.23 1014.61 1014.92
1031.33 1031.18 1031.84 1032.09 1032.17 1032.28 1030.92 1030.32 1025.21 1022.93 1022.23 1021.94 1021.33 1020.93 1020.18 1019.62 1018.92 1018.16 1017.25 1016.20 1015.39 1015.17 1014.73 1014.10 1013.41 1012.67 1012.25 1011.84 1010.78 1009.71 1009.60 1008.37 1006.76 1006.73 1007.21 1007.73 1008.24 1008.98 1009.51 1009.89 1010.28 1010.73 1010.94 1011.29 1012.11 1012.75 1013.31 1013.69 1013.89
1032.57 1032.69 1033.61 1034.92 1035.25 1032.88 1030.88 1029.22 1024.16 1022.09 1021.41 1021.04 1020.62 1020.35 1019.94 1019.48 1018.81 1018.17 1017.22 1016.32 1015.46 1014.72 1014.51 1013.87 1013.18 1012.50 1011.83 1011.15 1010.57 1009.77 1008.68 1008.03 1007.17 1005.54 1005.82 1006.38 1006.89 1007.46 1007.96 1008.54 1009.26 1009.62 1010.12 1010.25 1011.09 1011.53 1011.97 1012.69 1013.15
1033.27 1033.91 1034.22 1034.83 1035.38 1035.16 1030.55 1027.41 1024.11 1021.59 1021.17 1020.65 1020.29 1020.08 1019.49 1018.76 1018.06 1017.55 1016.73 1016.04 1015.15 1014.33 1013.75 1013.56 1012.80 1012.07 1011.44 1010.72 1010.70 1009.96 1008.79 1008.05 1007.30 1006.10 1004.94 1005.38 1006.04 1006.50 1006.89 1007.29 1007.85 1008.42 1008.90 1009.30 1009.99 1010.53 1010.93 1011.72 1012.35
1033.81 1034.30 1034.95 1035.98 1036.30 1034.92 1030.89 1027.95 1024.63 1021.82 1020.96 1020.55 1020.16 1019.66 1018.96 1018.32 1017.49 1016.82 1016.23 1015.46 1014.72 1014.04 1013.37 1012.95 1012.65 1011.86 1011.18 1010.62 1009.98 1009.68 1008.95 1007.90 1007.84 1007.13 1005.09 1004.66 1004.87 1005.63 1006.28 1006.61 1006.86 1007.33 1007.92 1008.43 1009.11 1009.77 1010.41 1011.33 1012.44
1034.35 1034.66 1035.73 1036.19 1036.38 1035.37 1032.97 1026.33 1021.85 1021.38 1020.77 1020.68 1020.12 1019.36 1018.75 1017.93 1016.98 1016.13 1015.42 1014.94 1014.25 1013.59 1013.10 1012.65 1012.07 1011.52 1010.78 1010.32 1009.69 1009.37 1008.63 1007.65 1007.34 1006.48 1005.40 1004.38 1004.69 1004.68 1005.40 1006.00 1006.06 1006.48 1007.04 1007.58 1008.52 1009.49 1010.24 1011.28 1012.39
1034.19 1034.40 1034.93 1035.88 1036.13 1035.09 1033.39 1025.65 1020.49 1020.36 1020.49 1020.34 1019.84 1018.79 1018.08 1017.41 1016.46 1015.64 1014.88 1014.27 1013.94 1013.42 1012.72 1012.28 1011.93 1011.30 1010.65 1010.06 1009.52 1008.92 1008.31 1007.51 1006.26 1005.65 1004.97 1004.52 1004.51 1004.42 1005.59 1005.71 1006.10 1006.15 1006.86 1007.63 1008.29 1009.12 1010.18 1011.23 1012.48
Wind_Speed
12 8 1 4 4 4 3 4 2 4 5 1 1 4 4 3 5 4 4 10 7 17 16 17 19 19 17 17 16 15 17 18 18 18 16 14 14 13 13 12 11 11 12 12 12 13 13 11 9
7 4 4 3 4 2 4 4 4 2 4 7 4 2 1 4 2 2 4 8 11 16 14 17 18 19 18 17 15 16 18 18 18 19 17 15 14 13 13 13 11 12 11 11 12 11 11 9 8
4 4 4 4 3 3 3 3 4 6 9 2 4 1 2 3 2 3 5 12 13 15 14 14 17 19 18 17 15 17 17 19 20 19 17 15 15 14 14 12 12 12 11 11 11 11 10 8 7
3 4 4 4 3 5 5 3 3 8 5 2 3 8 4 3 2 3 6 13 16 15 13 14 18 19 17 16 15 15 18 18 19 17 16 16 16 12 13 14 12 12 12 12 11 10 9 7 6
3 3 3 2 4 4 4 4 3 5 4 5 3 5 4 1 3 3 10 13 15 14 12 14 17 18 18 17 15 15 16 16 17 18 17 16 15 14 13 12 13 12 12 11 10 9 7 6 6
4 3 2 3 4 4 3 4 2 3 2 6 2 5 5 6 3 1 6 9 12 13 12 13 13 14 17 18 15 15 16 17 18 16 17 16 15 15 13 13 12 11 11 10 9 8 6 5 5
6 4 4 2 3 4 4 14 4 5 7 5 3 3 5 5 2 2 2 4 9 12 12 12 12 13 12 13 14 13 13 15 16 17 17 15 15 14 13 12 11 12 10 10 8 7 5 4 3
4 4 4 2 2 2 7 13 6 11 4 6 1 5 13 4 2 3 6 4 7 9 12 12 10 12 12 12 11 11 12 13 12 15 12 12 12 11 12 9 11 12 11 10 8 7 5 4 3
2 4 3 1 5 7 7 10 7 9 6 7 3 3 4 6 1 4 3 4 8 11 12 12 11 10 12 10 10 10 13 14 13 13 12 11 9 11 12 8 9 10 10 10 9 8 6 4 2
5 3 4 3 3 4 11 5 11 7 9 7 13 5 9 3 4 8 8 9 11 13 13 12 13 13 10 9 10 10 9 10 10 9 11 9 10 9 9 9 10 10 9 9 9 8 6 4 2
6 4 4 4 7 7 6 6 7 6 4 12 24 29 24 9 9 12 13 14 12 9 10 11 13 12 12 10 8 6 6 7 7 12 11 10 8 7 6 5 6 6 8 6 6 5 3 5 4
6 4 3 4 6 9 7 7 14 4 7 11 15 19 20 20 15 14 16 15 13 13 12 13 13 12 14 11 9 10 8 7 7 9 12 9 6 8 8 6 7 6 5 6 5 4 5 6 6
5 3 4 4 6 7 4 14 8 3 9 14 17 17 18 19 20 17 14 12 12 14 14 15 13 14 13 13 10 11 11 9 10 10 11 10 9 9 8 7 6 6 6 6 5 5 5 5 5
2 3 5 2 8 7 13 10 1 4 14 23 20 18 17 17 18 16 12 15 13 15 15 15 16 14 15 13 16 11 10 11 9 9 10 13 10 9 9 8 8 7 7 6 6 6 5 5 4
2 3 4 5 5 5 12 7 3 7 17 20 23 18 19 18 16 16 15 17 17 15 15 15 16 16 16 15 11 10 9 11 10 9 12 13 11 12 11 9 8 8 7 8 6 5 5 4 4
6 6 6 5 9 5 6 10 8 14 19 23 20 23 19 21 21 17 16 15 15 15 16 17 13 15 16 16 13 10 10 10 10 10 10 15 14 13 11 9 9 8 7 7 7 6 6 6 6
8 1 2 10 4 5 7 13 9 18 14 19 19 19 20 19 24 20 14 13 14 14 16 16 17 17 18 17 12 12 12 11 11 10 10 14 15 14 11 9 9 9 7 7 7 6 6 6 6
4 5 5 5 6 7 12 15 22 16 13 14 17 15 17 18 21 24 17 13 14 10 12 14 14 16 14 11 11 9 9 11 11 11 11 14 12 14 12 9 10 10 8 8 8 9 6 6 6
3 3 4 4 3 13 7 19 21 15 9 12 13 12 15 18 18 20 20 12 20 22 7 12 12 13 9 9 10 11 13 11 11 11 14 14 13 15 14 10 10 9 10 10 10 8 9 7 5
1 1 3 10 2 7 7 21 15 8 6 6 10 9 11 15 18 19 20 14 12 19 23 16 11 10 9 9 8 8 9 11 12 9 12 16 16 15 13 13 11 11 8 10 10 10 5 6 7
2 3 5 5 13 5 11 8 6 6 4 8 10 7 10 8 12 15 17 16 13 17 21 19 18 9 9 10 10 9 7 7 8 11 12 14 16 15 15 14 12 12 11 9 11 11 12 8 7
4 3 6 9 7 4 8 8 7 6 11 6 10 11 11 8 10 11 11 13 11 8 12 19 19 16 10 11 10 14 11 10 11 11 10 10 16 16 16 16 14 13 11 12 10 10 10 9 8
7 8 6 2 3 3 4 1 12 4 6 8 13 14 12 8 8 13 11 9 10 7 7 10 14 16 15 12 11 13 12 10 9 10 13 14 13 16 17 16 15 14 10 11 12 12 12 9 8
11 3 1 3 3 3 3 3 9 4 6 7 8 14 10 9 12 15 16 14 9 7 6 7 10 12 13 13 11 13 19 14 10 10 10 11 10 11 14 15 15 15 13 12 12 12 13 12 11
7 5 5 9 9 5 5 5 14 10 11 6 7 12 11 9 11 12 16 17 18 12 11 9 9 13 11 14 12 11 13 17 16 12 11 12 10 10 14 16 14 11 13 13 12 12 13 12 12
5 2 6 5 4 7 6 8 11 6 10 8 7 8 8 12 11 13 14 14 16 15 11 12 12 13 9 10 14 12 12 11 12 13 10 10 11 13 16 16 15 15 14 13 13 10 11 12 11
2 5 2 4 2 2 6 7 13 8 9 7 8 6 10 13 15 14 15 14 16 15 14 11 13 14 11 7 9 12 10 10 15 16 10 10 11 10 13 15 16 14 14 14 14 11 12 11 8
1 5 3 4 3 6 7 9 10 10 10 10 10 11 13 14 16 15 14 15 14 15 14 12 10 13 14 9 6 9 10 8 12 16 9 12 11 9 10 11 14 14 14 13 13 8 8 9 5
1 1 5 4 3 4 6 11 10 15 12 9 12 14 15 16 17 17 16 15 14 13 13 11 10 11 13 9 6 8 10 8 10 11 10 7 8 9 9 12 15 14 12 11 10 9 11 12 11
2 5 6 6 5 5 3 17 5 8 6 5 11 19 18 18 18 16 16 15 14 14 13 11 9 10 11 11 8 8 8 9 8 10 10 8 8 5 6 5 3 5 6 6 11 14 13 14 13
Wind_Direction
329 318 328 39 51 52 284 261 282 307 342 298 240 162 212 168 180 238 332 180 167 159 164 164 160 159 160 164 165 171 162 157 148 138 139 139 139 142 143 138 141 130 135 131 131 131 117 109 102
325 318 44 76 85 53 279 274 239 253 285 313 274 260 266 275 236 285 144 190 169 162 164 164 160 160 163 167 168 172 170 160 155 144 143 147 145 146 148 142 144 143 133 135 137 137 127 120 107
331 337 82 76 88 182 237 254 296 332 312 278 331 261 282 255 281 237 220 165 162 165 165 164 161 163 165 169 171 172 172 168 149 148 153 152 150 155 154 154 153 143 146 145 144 141 139 127 113
23 14 44 101 219 242 223 310 296 325 322 3 336 295 285 245 218 223 162 159 161 165 166 166 165 165 167 172 173 175 168 163 153 147 160 158 159 147 160 163 157 156 152 152 149 149 146 138 115
29 66 73 103 225 240 231 242 243 287 265 280 317 277 257 243 359 129 159 162 168 165 166 170 171 169 168 173 176 170 169 162 151 164 166 162 161 160 159 167 168 167 171 157 154 156 148 129 105
48 85 80 235 245 259 289 267 255 243 274 310 309 309 271 14 15 126 158 173 169 169 169 172 176 175 171 173 180 179 175 167 159 169 173 165 166 165 168 169 171 176 153 161 166 160 143 121 104
118 103 201 241 254 317 10 326 340 334 323 354 308 286 294 7 352 117 170 177 178 173 175 180 179 179 173 174 178 179 178 179 167 166 177 169 167 169 175 173 178 177 172 177 176 165 149 139 119
102 91 160 233 248 261 4 335 349 15 297 308 61 346 326 351 283 155 140 203 195 185 184 185 183 175 181 181 174 180 183 177 173 165 168 164 165 170 169 183 177 182 185 188 187 180 173 170 136
128 82 180 13 15 314 355 349 326 307 321 318 280 243 280 321 139 155 174 203 214 206 194 189 189 187 179 183 181 182 178 178 169 167 168 163 175 178 174 171 178 187 189 199 200 197 194 188 190
57 101 35 60 321 313 316 300 316 337 332 301 324 335 339 318 246 227 217 211 220 223 207 193 192 193 192 185 185 187 185 183 175 178 172 179 176 180 180 181 187 190 189 203 209 213 204 203 216
2 74 327 8 346 323 298 322 342 320 316 339 341 329 324 296 258 244 225 225 221 231 217 215 190 193 203 205 190 191 188 182 177 177 173 183 173 180 185 186 195 196 200 208 214 221 218 221 219
95 12 10 353 330 349 2 356 324 292 342 334 331 325 333 333 296 250 242 222 219 211 217 216 209 199 201 203 203 199 190 189 182 180 174 180 176 183 187 192 196 200 203 208 213 217 227 231 228
71 326 337 323 352 5 344 330 257 256 309 319 326 328 328 327 326 306 261 238 217 219 215 207 214 208 208 204 198 203 202 191 192 184 177 182 183 188 191 197 196 203 202 212 216 223 234 240 241
222 226 314 353 8 39 352 294 342 258 342 332 329 321 314 311 309 310 298 250 227 218 217 211 207 213 209 210 206 204 202 199 190 181 184 184 183 189 195 198 204 208 207 212 219 222 231 238 245
340 36 19 5 13 44 324 318 307 308 327 320 316 315 308 302 299 301 296 291 256 232 209 215 219 205 208 207 205 203 200 200 201 184 189 189 187 189 194 199 205 213 211 214 215 224 232 242 240
31 51 9 4 357 14 22 271 280 314 324 316 314 315 316 310 304 297 291 290 274 242 222 203 204 215 213 211 203 202 203 201 196 195 191 192 193 193 192 199 209 211 210 211 212 215 222 230 233
5 312 319 315 22 3 27 279 300 311 313 308 316 311 313 312 311 300 291 290 283 247 233 220 205 210 219 216 211 208 204 214 205 196 201 195 193 195 198 201 204 199 207 215 217 222 222 228 237
316 350 301 247 323 346 306 280 311 310 318 309 308 316 324 328 328 322 304 322 308 266 239 225 214 206 218 218 221 210 211 211 208 205 201 199 198 195 198 205 203 197 204 209 208 220 214 231 239
183 197 271 261 296 338 305 300 300 310 319 322 316 322 352 355 340 347 335 3 8 346 273 244 220 211 195 209 206 213 213 213 210 203 201 197 204 201 197 200 204 200 204 210 205 207 217 222 224
170 270 293 295 266 344 331 300 295 304 297 274 305 315 345 358 356 356 0 0 3 2 348 306 243 227 204 217 217 215 215 222 218 204 199 202 203 203 200 195 196 197 205 208 204 200 204 220 192
55 71 340 285 324 6 328 297 314 301 315 319 329 315 329 355 348 349 359 16 21 6 344 336 333 297 251 223 230 225 221 205 200 210 214 205 202 199 201 201 199 193 195 205 203 202 204 209 202
3 158 304 304 11 313 18 293 303 290 313 314 318 321 319 329 340 338 352 354 8 15 342 346 330 331 330 348 255 218 216 201 208 214 219 212 201 201 201 204 204 197 196 204 200 196 204 205 212
261 305 288 253 115 36 355 301 271 294 308 316 323 315 313 319 326 329 325 329 323 338 353 328 331 331 323 332 325 305 221 225 214 203 199 203 204 206 206 202 201 200 199 202 199 197 202 203 209
272 331 93 85 125 39 188 108 276 269 244 291 313 311 305 318 326 331 326 327 323 309 310 321 320 327 324 314 310 312 317 224 218 206 198 196 199 206 209 206 204 206 199 195 199 204 203 207 210
354 9 351 2 8 247 173 325 251 276 277 230 290 295 296 299 309 314 320 321 322 327 320 308 317 312 317 312 308 311 291 303 221 206 201 196 194 195 209 206 203 205 202 195 197 202 209 211 207
355 55 130 213 282 287 310 226 256 236 281 280 267 271 280 295 299 298 302 303 306 310 311 307 304 298 299 308 313 308 307 304 297 213 206 202 201 202 202 197 204 202 201 199 203 203 206 207 211
325 46 197 115 98 321 258 279 284 287 285 279 290 295 289 303 307 298 302 295 299 304 304 304 301 295 288 273 288 296 294 305 298 279 205 200 200 206 201 198 199 199 202 202 202 207 206 197 192
23 169 62 22 16 298 281 284 248 284 283 302 307 304 303 302 301 301 298 296 294 296 298 300 291 286 287 279 261 285 288 279 287 278 280 207 193 190 204 203 201 200 202 203 205 193 158 139 124
142 345 46 114 148 208 295 253 208 246 263 282 301 298 296 299 297 301 301 295 290 290 295 292 293 301 291 282 277 273 283 284 279 289 257 225 205 184 191 223 207 205 197 177 169 154 140 127 119
289 202 165 128 249 235 261 268 228 229 259 277 278 303 300 297 300 300 296 295 289 292 296 293 292 301 293 295 289 278 281 289 286 283 271 214 221 169 186 147 104 133 135 138 146 138 134 126 123